Regional Weather Roundup
Issued by NWS Wakefield, VA

Home | Current Version | Previous Version | Text Only | Print | Product List | Glossary Off
Versions: 1 2 3 4 5 6 7 8 9 10 11 12 13 14 15 16 17 18 19 20 21 22 23 24 25 26 27 28 29 30 31 32 33 34 35 36 37 38 39 40 41 42 43 44 45 46 47 48 49 50

000
ASUS41 KAKQ 230410
RWRAKQ

REGIONAL WEATHER ROUNDUP
NATIONAL WEATHER SERVICE WAKEFIELD VA
1200 AM EDT WED JUL 23 2014

Note: "fair" indicates few or no clouds below 12,000 feet with no
significant weather and/or obstructions to visibility. * = Denotes
station may not report precipitation (e.g., rain,snow,etc.),
thunder or fog.

VAZ042-051-052>054-056-230500-
NORTHERN VIRGINIA

CITY           SKY/WX    TMP DP  RH WIND       PRES   REMARKS
WASH NATIONAL  PTCLDY    78  67  68 S9        30.08F
DULLES         CLEAR     74  69  85 S5        30.07F
FORT BELVOIR   CLEAR     72  69  91 SE3       30.08F
QUANTICO       CLEAR     79  71  76 S15       30.09F
FREDERICKSBRG* CLEAR     74  70  86 S5        30.08S
STAFFORD*      CLEAR     71  71 100 CALM      30.12F
WARRENTON      CLEAR     72  72 100 CALM      30.08F FOG
CULPEPER*      CLEAR    N/A N/A N/A CALM      30.08F
MANASSAS*      CLEAR     73  72  94 CALM      30.08S
LEESBURG*      CLEAR     77  72  83 S5        30.08F
WINCHESTER     CLEAR     73  70  88 CALM      30.08S
$$

VAZ048-049-060>072-079>083-230500-
CENTRAL AND SOUTH CENTRAL VIRGINIA...AND NORTH CENTRAL NORTH CAROLINA

CITY           SKY/WX    TMP DP  RH WIND       PRES   REMARKS
RICHMOND       PTCLDY    75  69  81 CALM      30.10R
CHESTERFIELD*  CLEAR     73  63  68 CALM      30.12R
HANOVER        CLEAR     71  67  87 CALM      30.12R
TAPPAHANNOCK*  CLEAR     72  67  85 CALM      30.11S
CHARLOTTSVILLE PTCLDY    75  70  84 CALM      30.10S
ORANGE*        CLEAR     72  70  94 CALM      30.11S
LOUISA*        PTCLDY    75  70  83 S3        30.09F
FARMVILLE*     CLEAR     73  73 100 CALM      30.09S
SOUTH HILL*    CLEAR     72  72 100 CALM      30.16S
ROANOKE RAPIDS CLOUDY    68  64  88 CALM      30.11R
RALEIGH        PTCLDY    74  71  91 CALM      30.12R
$$

VAZ088>098-230500-
SOUTHEAST VIRGINIA

CITY           SKY/WX    TMP DP  RH WIND       PRES   REMARKS
NORFOLK        CLEAR     75  72  90 CALM      30.08F
VIRGINIA BEACH PTCLDY    74  72  93 CALM      30.08S
NORFOLK NAVAL  PTCLDY    77  73  87 CALM      30.10F
WEST POINT*    CLEAR     75  72  88 SE3       30.11S
NEWPORT NEWS   CLEAR     77  72  84 CALM      30.10R
LANGLEY AFB    CLEAR     76  76 100 CALM      30.09S
FORT EUSTIS    PTCLDY    76  76 100 E3        30.08S
WILLIAMSBURG*  PTCLDY    75  73  94 CALM      30.10S
FRANKLIN*      CLEAR     72 N/A N/A CALM      30.10S
WAKEFIELD      CLEAR     74  71  91 CALM      30.10S
$$

VAZ020-022-025-037-045-230500-
WESTERN AND SOUTHWEST VIRGINIA

CITY           SKY/WX    TMP DP  RH WIND       PRES   REMARKS
STAUNTON*      CLEAR     71  67  87 SW3       30.13F
HOT SPRINGS VA PTCLDY    65  62  90 S8        30.27F
LYNCHBURG      PTCLDY    72  69  90 CALM      30.14S
DANVILLE       CLEAR     72  69  90 E3        30.13R
MARTINSVILLE   CLEAR     70  69  98 CALM      30.17R
ROANOKE        CLEAR     75  68  78 CALM      30.16R
BLACKSBURG     CLEAR     68  68 100 CALM      30.22R
DUBLIN*        CLEAR     70  68  95 CALM      30.20R
MARION*        CLEAR     67  67  99 CALM      30.24R
HILLSVILLE*    CLEAR     67  66  96 S3        30.23S
RICHLANDS*     MOCLDY    77  66  68 S3        30.21R
WISE*          CLEAR     70  66  88 S3        30.22S
ABINGDON*      CLEAR     72  69  89 CALM      30.18S
$$

MDZ021>025-VAZ099-100-230500-
SOUTHERN MARYLAND AND THE DELMARVA PENINSULA

CITY           SKY/WX    TMP DP  RH WIND       PRES   REMARKS
PATUXENT RIVER CLEAR     73  68  84 S3        30.09F
BAY BRIDGE APT   N/A     77  68  73 S5        30.08S
LEONARDTOWN    CLEAR     72  68  88 CALM      30.11F
DOVER          CLEAR     71  66  85 S5        30.06F
GEORGETOWN     CLEAR     70  66  87 S9        30.09F
EASTON         CLEAR     74  66  74 CALM      30.12F
CAMBRIDGE      CLEAR     72  64  78 CALM      30.09S
SALISBURY      NOT AVBL
OCEAN CITY     CLEAR     73  70  90 S5        30.09F
WALLOPS ISLAND CLEAR     74  72  93 S6        30.10F
ACCOMACK*        N/A     72  70  94 CALM      30.10S
$$

NCZ012>017-030>032-230500-
EASTERN NORTH CAROLINA

CITY           SKY/WX    TMP DP  RH WIND       PRES   REMARKS
ELIZABETH CITY PTCLDY    74  73  97 CALM      30.09F
AHOSKIE*       CLOUDY    72  70  96 CALM      30.11S VSB 1/2
EDENTON*       PTCLDY    76  74  95 S5        30.09F
CURRITUCK*     PTCLDY    76  70  84 CALM      30.10S
KILL DEVIL HLS CLOUDY    76  74  93 SW3       30.09S
MANTEO         NOT AVBL
CAPE HATTERAS  MOCLDY    79  75  87 SW9       30.10F
GOLDSBORO      PTCLDY    76  76  99 CALM      30.08F
WASHINGTON     CLOUDY    75  74  95 CALM      30.10F
GREENVILLE     CLOUDY    75  73  94 CALM      30.11S
NEW BERN       MOCLDY    77  74  90 SW5       30.10F
WILMINGTON     PTCLDY    76  73  91 CALM      30.10S
$$

VAZ048-230500-
ELSEWHERE

CITY           SKY/WX    TMP DP  RH WIND       PRES   REMARKS
HARRISBURG PA  PTCLDY    78  68  71 SW10      30.05F
BALTIMORE      CLEAR     74  65  73 CALM      30.07F
ANNAPOLIS      CLEAR     76  67  73 S6        30.07F
ANDREWS AFB    CLEAR     72  67  85 S8        30.08F
WILMINGTON DE  CLEAR     74  67  78 CALM      30.09F
PHILADELPHIA   CLEAR     75  59  57 SW7       30.08F
WILDWOOD NJ*   PTCLDY    70  64  83 S3        30.10S
ATLANTIC CITY  PTCLDY    71  68  90 S5        30.08F
HENDERSON NC   PTCLDY    73  71  93 S3        30.11S
GREENSBORO     PTCLDY    73  69  87 CALM      30.13R
ROCKY MOUNT    CLOUDY    74  72  93 CALM      30.11R
FAYETTEVILLE   MOCLDY    78  74  87 S6        30.10R
CHARLOTTE      MOCLDY    74  70  87 CALM      30.14S
$$

VAZ100-230500-
MARINE

STATION/POSITION TIME  TEMP    WIND        PRES    WAVE   SWELL
                       AIR SEA DIR/SP/G            HT/PER HT/PER
                 (UTC) (F)     (DEG/KT/KT) (MB)    (FT/S) (FT/S)
44066 TX TWR #4  0400   73 74  220/ 10/ 12 1018.6F   2/ 8   2/ 8
CAPE MAY NJ      0400   71 76  180/  4/  6 1018.7S
LEWES DE         0400   72 70  200/  3/  4 1018.4F
15NM E FENWICK I 0400   75 76              1019.2F   2/ 8
OCEAN-CITY-INLET 0400   73 72  190/  4/  5 1018.8R
WACHAPREAGUE VA  0400   75 82  110/  3/  4 1019.0S
THOMAS POINT MD  0400   78 80  200/ 14/ 15 1018.9F
GOOSES REEF MD   0400   78     210/ 12/ 14 1019.2S
COVE POINT MD    0400   76     210/  7/  8 1018.8F
SOLOMONS ISLAND  0400      81                N/A
BISHOPS HEAD MD  0400   77 81  200/  6/  8 1018.7R
PINEY POINT MD   0400          200/  7/  8   N/A
POTOMAC MD       0400   77     180/  8/ 10 1018.3F
CAMBRIDGE MD     0400   74 80  190/  3/  5 1018.8S
LEWISETTA VA     0400   75 81  210/  3/  4 1018.9R
RAPPAHANNOCK LGT 0400          120/  6/  6 1019.6R
STINGRAY PT      0400   78     170/  8/ 10 1019.7R
YORK RVR RNG VA  0400   77     160/  6/  7 1018.6R
YORKTOWN VA      0400   76 80  170/  2/  3 1018.8R
JAMESTOWN VA     0400   76     180/  6/  6   N/A
DOMINION TERM VA 0400   78     160/  4/  5 1018.9S
KIPTOPEKE VA     0400      80  150/  4/  4   N/A
CHES BAY BRIDGE  0400   76 76  150/  5/  6 1018.3S
CAPE HENRY VA    0400   75     160/  4/  5 1017.6F
WILLOUBY STN VA  0400          180/  5/  6 1018.1F
S CRANEY ISL VA  0400          180/  3/  3 1018.8S
CAPE HENRY BUOY  0400      76                N/A     2/ 7
1ST LANDING BUOY 0400   76     160/  8/  8 1018.5S
CAPE CHARLES BUO 0400      76                N/A     2/12
OFFSHORE WE BUOY 0400      77                N/A     2/ 8
64NM E OF VA BCH 0400   77 78  200/ 10/ 12 1018.8F   2/ 8   2/ 8
DUCK PIER NC     0400   78 73  200/  9/ 12 1018.2R
44056 DUCK FRF   0400                        N/A     2/ 8
OREGON INLET NC  0400   76 80  250/  3/  4 1019.2S
HATTERAS NC      0400   79 82  200/  7/ 11 1019.7S
DIAMOND SHLS NC  0400          VRB 16/ 17  1019.1F   4/ 7   3/ 7
CAPE LOOKOUT NC  0300   78     190/ 11/ 13 1019.3F
$$



USA.gov is the U.S. government's official web portal to all federal, state and local government web resources and services.